| time (UTC) | temp C | wind direction | speed KPH | gust KPH | rain 1hr cm | rain 24hr cm | rain mn cm | humidity % | barometer mb |
| 20260505224143 | 22 | 162 | 8.0 | 11.3 | 0.00 | 0.00 | 0.00 | 47 | 1005.7 |
| 20260505223641 | 22 | 111 | 6.4 | 9.7 | 0.00 | 0.00 | 0.00 | 46 | 1005.5 |
| 20260505223136 | 22 | 114 | 4.8 | 8.0 | 0.00 | 0.00 | 0.00 | 47 | 1005.3 |
| 20260505222632 | 22 | 140 | 8.0 | 9.7 | 0.00 | 0.00 | 0.00 | 46 | 1005.6 |
| 20260505222129 | 22 | 126 | 6.4 | 8.0 | 0.00 | 0.00 | 0.00 | 45 | 1005.3 |
| 20260505221626 | 23 | 139 | 8.0 | 11.3 | 0.00 | 0.00 | 0.00 | 47 | 1005.6 |
| 20260505221122 | 23 | 161 | 3.2 | 3.2 | 0.00 | 0.00 | 0.00 | 48 | 1005.6 |
| 20260505220620 | 23 | 123 | 4.8 | 8.0 | 0.00 | 0.00 | 0.00 | 48 | 1005.5 |
| 20260505220118 | 23 | 151 | 4.8 | 8.0 | 0.00 | 0.00 | 0.00 | 49 | 1005.5 |
| 20260505215615 | 23 | 136 | 9.7 | 11.3 | 0.00 | 0.00 | 0.00 | 47 | 1005.4 |
| 20260505215113 | 23 | 124 | 4.8 | 4.8 | 0.00 | 0.00 | 0.00 | 51 | 1005.3 |
| 20260505214611 | 23 | 116 | 6.4 | 9.7 | 0.00 | 0.00 | 0.00 | 49 | 1005.2 |
| 20260505214108 | 23 | 121 | 8.0 | 9.7 | 0.00 | 0.00 | 0.00 | 49 | 1005.4 |
| 20260505213605 | 23 | 129 | 1.6 | 1.6 | 0.00 | 0.00 | 0.00 | 49 | 1005.8 |
| 20260505213102 | 23 | 139 | 1.6 | 1.6 | 0.00 | 0.00 | 0.00 | 50 | 1005.5 |
| 20260505212558 | 23 | 146 | 4.8 | 4.8 | 0.00 | 0.00 | 0.00 | 49 | 1005.6 |
| 20260505212056 | 23 | 137 | 9.7 | 12.9 | 0.00 | 0.00 | 0.00 | 49 | 1005.6 |
| 20260505211552 | 23 | 137 | 0.0 | 1.6 | 0.00 | 0.00 | 0.00 | 52 | 1005.5 |
| 20260505211049 | 23 | 135 | 1.6 | 1.6 | 0.00 | 0.00 | 0.00 | 50 | 1005.7 |
| 20260505210546 | 23 | 114 | 6.4 | 8.0 | 0.00 | 0.00 | 0.00 | 49 | 1005.5 |
| 20260505210043 | 23 | 134 | 4.8 | 4.8 | 0.00 | 0.00 | 0.00 | 48 | 1005.7 |
| 20260505205541 | 23 | 131 | 9.7 | 11.3 | 0.00 | 0.00 | 0.00 | 49 | 1005.5 |
| 20260505205038 | 23 | 117 | 4.8 | 8.0 | 0.00 | 0.00 | 0.00 | 48 | 1005.9 |
| 20260505204536 | 23 | 134 | 8.0 | 9.7 | 0.00 | 0.00 | 0.00 | 50 | 1005.9 |
| 20260505204033 | 23 | 112 | 9.7 | 12.9 | 0.00 | 0.00 | 0.00 | 49 | 1005.8 |
| 20260505203529 | 23 | 143 | 9.7 | 12.9 | 0.00 | 0.00 | 0.00 | 49 | 1005.9 |
| 20260505203026 | 24 | 140 | 1.6 | 3.2 | 0.00 | 0.00 | 0.00 | 50 | 1005.9 |
| 20260505202522 | 24 | 103 | 4.8 | 8.0 | 0.00 | 0.00 | 0.00 | 49 | 1006.0 |
| 20260505202018 | 23 | 143 | 4.8 | 4.8 | 0.00 | 0.00 | 0.00 | 50 | 1006.1 |
| 20260505201516 | 23 | 129 | 4.8 | 4.8 | 0.00 | 0.00 | 0.00 | 50 | 1006.0 |
| 20260505201013 | 23 | 151 | 4.8 | 4.8 | 0.00 | 0.00 | 0.00 | 51 | 1006.1 |
| 20260505200511 | 23 | 124 | 1.6 | 1.6 | 0.00 | 0.00 | 0.00 | 53 | 1006.2 |
| 20260505200007 | 23 | 123 | 6.4 | 8.0 | 0.00 | 0.00 | 0.00 | 50 | 1006.0 |
| 20260505195504 | 23 | 97 | 3.2 | 3.2 | 0.00 | 0.00 | 0.00 | 52 | 1006.1 |
| 20260505195001 | 23 | 141 | 4.8 | 8.0 | 0.00 | 0.00 | 0.00 | 53 | 1006.3 |
| 20260505194459 | 23 | 82 | 3.2 | 8.0 | 0.00 | 0.00 | 0.00 | 51 | 1006.4 |
| 20260505193958 | 23 | 122 | 9.7 | 14.5 | 0.00 | 0.00 | 0.00 | 50 | 1006.3 |
| 20260505193456 | 23 | 108 | 4.8 | 8.0 | 0.00 | 0.00 | 0.00 | 49 | 1006.7 |
| 20260505192953 | 23 | 123 | 1.6 | 1.6 | 0.00 | 0.00 | 0.00 | 50 | 1006.5 |
| 20260505192452 | 23 | 120 | 9.7 | 11.3 | 0.00 | 0.00 | 0.00 | 51 | 1006.9 |
| 20260505191949 | 23 | 186 | 9.7 | 12.9 | 0.00 | 0.00 | 0.00 | 52 | 1006.6 |
| 20260505191447 | 23 | 133 | 6.4 | 8.0 | 0.00 | 0.00 | 0.00 | 52 | 1006.9 |
| 20260505190944 | 23 | 137 | 11.3 | 14.5 | 0.00 | 0.00 | 0.00 | 50 | 1007.1 |
| 20260505190439 | 23 | 127 | 6.4 | 9.7 | 0.00 | 0.00 | 0.00 | 50 | 1007.0 |
| 20260505185935 | 23 | 141 | 3.2 | 4.8 | 0.00 | 0.00 | 0.00 | 53 | 1007.2 |
| 20260505185432 | 23 | 137 | 8.0 | 9.7 | 0.00 | 0.00 | 0.00 | 53 | 1007.1 |
| 20260505184928 | 23 | 114 | 8.0 | 11.3 | 0.00 | 0.00 | 0.00 | 50 | 1007.2 |
| 20260505184426 | 23 | 125 | 3.2 | 3.2 | 0.00 | 0.00 | 0.00 | 50 | 1007.3 |
| 20260505183922 | 23 | 180 | 6.4 | 9.7 | 0.00 | 0.00 | 0.00 | 50 | 1007.1 |
| 20260505183419 | 23 | 104 | 11.3 | 12.9 | 0.00 | 0.00 | 0.00 | 49 | 1007.2 |
| 20260505182916 | 23 | 179 | 4.8 | 8.0 | 0.00 | 0.00 | 0.00 | 51 | 1007.5 |
| 20260505182413 | 23 | 132 | 1.6 | 1.6 | 0.00 | 0.00 | 0.00 | 50 | 1007.4 |
| 20260505181909 | 23 | 121 | 1.6 | 3.2 | 0.00 | 0.00 | 0.00 | 53 | 1007.5 |
| 20260505181406 | 23 | 107 | 11.3 | 14.5 | 0.00 | 0.00 | 0.00 | 51 | 1007.6 |
| 20260505180903 | 23 | 135 | 4.8 | 4.8 | 0.00 | 0.00 | 0.00 | 52 | 1007.5 |
| 20260505180400 | 23 | 110 | 16.1 | 16.1 | 0.00 | 0.00 | 0.00 | 50 | 1007.3 |
| 20260505175856 | 23 | 168 | 9.7 | 14.5 | 0.00 | 0.00 | 0.00 | 52 | 1007.5 |
| 20260505175352 | 22 | 127 | 8.0 | 9.7 | 0.00 | 0.00 | 0.00 | 53 | 1007.7 |
| 20260505174849 | 22 | 144 | 9.7 | 11.3 | 0.00 | 0.00 | 0.00 | 51 | 1007.8 |
| 20260505174347 | 22 | 123 | 4.8 | 8.0 | 0.00 | 0.00 | 0.00 | 53 | 1007.8 |
| 20260505173842 | 22 | 117 | 9.7 | 11.3 | 0.00 | 0.00 | 0.00 | 51 | 1007.8 |
| 20260505173339 | 22 | 178 | 4.8 | 8.0 | 0.00 | 0.00 | 0.00 | 52 | 1007.7 |
| 20260505172836 | 22 | 136 | 6.4 | 11.3 | 0.00 | 0.00 | 0.00 | 54 | 1007.9 |
| 20260505172334 | 22 | 151 | 6.4 | 9.7 | 0.00 | 0.00 | 0.00 | 55 | 1007.9 |
| 20260505171833 | 22 | 163 | 8.0 | 11.3 | 0.00 | 0.00 | 0.00 | 54 | 1007.9 |
| 20260505171331 | 22 | 122 | 11.3 | 14.5 | 0.00 | 0.00 | 0.00 | 53 | 1007.9 |
| 20260505170827 | 23 | 174 | 4.8 | 4.8 | 0.00 | 0.00 | 0.00 | 56 | 1007.8 |
| 20260505170324 | 22 | 115 | 6.4 | 8.0 | 0.00 | 0.00 | 0.00 | 53 | 1007.9 |
| 20260505165819 | 23 | 111 | 4.8 | 8.0 | 0.00 | 0.00 | 0.00 | 54 | 1007.9 |
| 20260505165315 | 23 | 102 | 6.4 | 8.0 | 0.00 | 0.00 | 0.00 | 51 | 1007.8 |
| 20260505164811 | 23 | 170 | 9.7 | 12.9 | 0.00 | 0.00 | 0.00 | 53 | 1007.8 |
| 20260505164308 | 23 | 116 | 8.0 | 11.3 | 0.00 | 0.00 | 0.00 | 53 | 1007.7 |
| 20260505163806 | 23 | 137 | 9.7 | 11.3 | 0.00 | 0.00 | 0.00 | 55 | 1007.7 |
| 20260505163305 | 23 | 117 | 4.8 | 4.8 | 0.00 | 0.00 | 0.00 | 51 | 1007.6 |
| 20260505162803 | 23 | 161 | 11.3 | 14.5 | 0.00 | 0.00 | 0.00 | 53 | 1007.8 |
| 20260505162258 | 22 | 136 | 11.3 | 12.9 | 0.00 | 0.00 | 0.00 | 52 | 1007.9 |
| 20260505161756 | 23 | 141 | 17.7 | 24.1 | 0.00 | 0.00 | 0.00 | 52 | 1008.0 |
| 20260505161253 | 23 | 182 | 8.0 | 11.3 | 0.00 | 0.00 | 0.00 | 52 | 1008.1 |
| 20260505160750 | 22 | 116 | 8.0 | 9.7 | 0.00 | 0.00 | 0.00 | 56 | 1008.0 |
| 20260505160248 | 23 | 121 | 8.0 | 12.9 | 0.00 | 0.00 | 0.00 | 53 | 1008.0 |
| 20260505153227 | 22 | 151 | 11.3 | 12.9 | 0.00 | 0.00 | 0.00 | 56 | 1008.2 |
| 20260505152724 | 22 | 130 | 8.0 | 12.9 | 0.00 | 0.00 | 0.00 | 56 | 1008.4 |
| 20260505152220 | 22 | 119 | 1.6 | 3.2 | 0.00 | 0.00 | 0.00 | 56 | 1008.2 |
| 20260505151715 | 22 | 173 | 3.2 | 4.8 | 0.00 | 0.00 | 0.00 | 55 | 1008.1 |
| 20260505151213 | 22 | 153 | 1.6 | 1.6 | 0.00 | 0.00 | 0.00 | 55 | 1008.4 |
| 20260505150709 | 22 | 189 | 9.7 | 11.3 | 0.00 | 0.00 | 0.00 | 54 | 1008.0 |
| 20260505150206 | 22 | 159 | 4.8 | 4.8 | 0.00 | 0.00 | 0.00 | 57 | 1008.2 |
| 20260505140639 | 21 | 111 | 12.9 | 17.7 | 0.00 | 0.00 | 0.00 | 54 | 1008.0 |
| 20260505140136 | 21 | 116 | 11.3 | 14.5 | 0.00 | 0.00 | 0.00 | 55 | 1007.9 |
| 20260505124549 | 18 | 138 | 6.4 | 8.0 | 0.00 | 0.00 | 0.00 | 63 | 1008.1 |
| 20260505124046 | 18 | 124 | 6.4 | 8.0 | 0.00 | 0.00 | 0.00 | 63 | 1008.1 |
| 20260505123542 | 18 | 114 | 4.8 | 8.0 | 0.00 | 0.00 | 0.00 | 63 | 1008.1 |
| 20260505123038 | 18 | 138 | 3.2 | 3.2 | 0.00 | 0.00 | 0.00 | 66 | 1008.1 |
| 20260505122536 | 18 | 122 | 8.0 | 9.7 | 0.00 | 0.00 | 0.00 | 65 | 1008.0 |
| 20260505122032 | 17 | 120 | 4.8 | 4.8 | 0.00 | 0.00 | 0.00 | 66 | 1007.9 |
| 20260505121529 | 18 | 116 | 4.8 | 8.0 | 0.00 | 0.00 | 0.00 | 66 | 1007.9 |
| 20260505121026 | 17 | 132 | 3.2 | 3.2 | 0.00 | 0.00 | 0.00 | 66 | 1008.1 |
| 20260505120522 | 17 | 127 | 4.8 | 4.8 | 0.00 | 0.00 | 0.00 | 66 | 1007.7 |
| 20260505120018 | 17 | 133 | 9.7 | 12.9 | 0.00 | 0.00 | 0.00 | 65 | 1007.8 |
| 20260505115513 | 17 | 136 | 4.8 | 4.8 | 0.00 | 0.00 | 0.00 | 69 | 1007.5 |
| 20260505115011 | 17 | 139 | 6.4 | 11.3 | 0.00 | 0.00 | 0.00 | 68 | 1007.6 |
| 20260505114507 | 16 | 119 | 9.7 | 12.9 | 0.00 | 0.00 | 0.00 | 69 | 1007.4 |
| 20260505114004 | 16 | 133 | 4.8 | 4.8 | 0.00 | 0.00 | 0.00 | 71 | 1007.3 |
| 20260505113500 | 16 | 150 | 6.4 | 9.7 | 0.00 | 0.00 | 0.00 | 70 | 1007.4 |
| 20260505112956 | 16 | 169 | 9.7 | 12.9 | 0.00 | 0.00 | 0.00 | 71 | 1007.3 |
| 20260505112453 | 15 | 143 | 4.8 | 8.0 | 0.00 | 0.00 | 0.00 | 75 | 1007.3 |
| 20260505111950 | 15 | 119 | 6.4 | 9.7 | 0.00 | 0.00 | 0.00 | 77 | 1007.3 |
| 20260505111444 | 15 | 165 | 4.8 | 4.8 | 0.00 | 0.00 | 0.00 | 79 | 1007.1 |
| 20260505110941 | 14 | 132 | 6.4 | 8.0 | 0.00 | 0.00 | 0.00 | 81 | 1007.0 |
| 20260505110438 | 13 | 137 | 3.2 | 3.2 | 0.00 | 0.00 | 0.00 | 82 | 1007.0 |
| 20260505101908 | 15 | 113 | 4.8 | 4.8 | 0.00 | 0.00 | 0.00 | 77 | 1007.2 |
| 20260505101403 | 15 | 149 | 4.8 | 4.8 | 0.00 | 0.00 | 0.00 | 76 | 1007.0 |
| 20260505100859 | 15 | 145 | 8.0 | 9.7 | 0.00 | 0.00 | 0.00 | 73 | 1006.9 |
| 20260505100356 | 15 | 125 | 8.0 | 9.7 | 0.00 | 0.00 | 0.00 | 75 | 1007.0 |
| 20260505095851 | 15 | 141 | 3.2 | 3.2 | 0.00 | 0.00 | 0.00 | 73 | 1006.8 |
| 20260505095349 | 15 | 138 | 4.8 | 4.8 | 0.00 | 0.00 | 0.00 | 73 | 1006.6 |
| 20260505094845 | 15 | 133 | 4.8 | 8.0 | 0.00 | 0.00 | 0.00 | 75 | 1006.7 |
| 20260505094342 | 15 | 145 | 4.8 | 8.0 | 0.00 | 0.00 | 0.00 | 74 | 1006.8 |
| 20260505093838 | 15 | 133 | 4.8 | 4.8 | 0.00 | 0.00 | 0.00 | 74 | 1006.5 |
| 20260505093335 | 16 | 139 | 4.8 | 4.8 | 0.00 | 0.00 | 0.00 | 72 | 1006.6 |
| 20260505092832 | 16 | 134 | 4.8 | 4.8 | 0.00 | 0.00 | 0.00 | 74 | 1006.4 |
| 20260505092331 | 15 | 130 | 4.8 | 4.8 | 0.00 | 0.00 | 0.00 | 75 | 1006.3 |
| 20260505091827 | 15 | 126 | 3.2 | 3.2 | 0.00 | 0.00 | 0.00 | 75 | 1006.2 |
| 20260505091326 | 16 | 134 | 3.2 | 3.2 | 0.00 | 0.00 | 0.00 | 71 | 1006.3 |
| 20260505090823 | 15 | 143 | 6.4 | 8.0 | 0.00 | 0.00 | 0.00 | 74 | 1006.0 |
| 20260505090321 | 15 | 152 | 4.8 | 4.8 | 0.00 | 0.00 | 0.00 | 77 | 1006.3 |
| 20260505085818 | 16 | 131 | 4.8 | 4.8 | 0.00 | 0.00 | 0.00 | 74 | 1006.3 |
| 20260505085317 | 16 | 124 | 3.2 | 3.2 | 0.00 | 0.00 | 0.00 | 74 | 1006.1 |
| 20260505084814 | 15 | 135 | 4.8 | 4.8 | 0.00 | 0.00 | 0.00 | 74 | 1006.1 |
| 20260505084312 | 16 | 142 | 4.8 | 4.8 | 0.00 | 0.00 | 0.00 | 74 | 1006.1 |
| 20260505083809 | 16 | 137 | 4.8 | 4.8 | 0.00 | 0.00 | 0.00 | 75 | 1006.2 |
| 20260505083306 | 16 | 129 | 4.8 | 4.8 | 0.00 | 0.00 | 0.00 | 73 | 1006.0 |
| 20260505082802 | 16 | 136 | 4.8 | 8.0 | 0.00 | 0.00 | 0.00 | 74 | 1006.1 |
| 20260505082259 | 16 | 132 | 4.8 | 4.8 | 0.00 | 0.00 | 0.00 | 75 | 1006.4 |
| 20260505081755 | 16 | 138 | 1.6 | 3.2 | 0.00 | 0.00 | 0.00 | 72 | 1006.3 |
| 20260505081252 | 16 | 137 | 4.8 | 4.8 | 0.00 | 0.00 | 0.00 | 72 | 1006.0 |
| 20260505080749 | 16 | 135 | 9.7 | 12.9 | 0.00 | 0.00 | 0.00 | 70 | 1006.2 |
| 20260505080245 | 17 | 141 | 6.4 | 8.0 | 0.00 | 0.00 | 0.00 | 69 | 1006.0 |
| 20260505075740 | 17 | 165 | 3.2 | 3.2 | 0.00 | 0.00 | 0.00 | 68 | 1006.2 |
| 20260505075238 | 17 | 144 | 3.2 | 4.8 | 0.00 | 0.00 | 0.00 | 68 | 1006.0 |
| 20260505074735 | 17 | 144 | 6.4 | 8.0 | 0.00 | 0.00 | 0.00 | 68 | 1005.8 |
| 20260505074232 | 17 | 137 | 3.2 | 3.2 | 0.00 | 0.00 | 0.00 | 67 | 1006.0 |
| 20260505073730 | 18 | 128 | 6.4 | 8.0 | 0.00 | 0.00 | 0.00 | 65 | 1006.0 |
| 20260505073227 | 18 | 164 | 8.0 | 9.7 | 0.00 | 0.00 | 0.00 | 66 | 1005.9 |
| 20260505072724 | 17 | 136 | 4.8 | 8.0 | 0.00 | 0.00 | 0.00 | 68 | 1005.9 |
| 20260505072220 | 18 | 142 | 6.4 | 8.0 | 0.00 | 0.00 | 0.00 | 67 | 1006.0 |
| 20260505071715 | 17 | 143 | 4.8 | 4.8 | 0.00 | 0.00 | 0.00 | 67 | 1005.9 |
| 20260505071213 | 17 | 119 | 9.7 | 12.9 | 0.00 | 0.00 | 0.00 | 70 | 1006.1 |
| 20260505070710 | 17 | 130 | 3.2 | 3.2 | 0.00 | 0.00 | 0.00 | 69 | 1006.0 |
| 20260505070206 | 16 | 131 | 3.2 | 3.2 | 0.00 | 0.00 | 0.00 | 71 | 1005.8 |
| 20260505065702 | 16 | 132 | 3.2 | 4.8 | 0.00 | 0.00 | 0.00 | 75 | 1005.7 |
| 20260505065159 | 16 | 153 | 8.0 | 9.7 | 0.00 | 0.00 | 0.00 | 75 | 1005.9 |
| 20260505064656 | 15 | 126 | 3.2 | 4.8 | 0.00 | 0.00 | 0.00 | 76 | 1006.2 |
| 20260505064154 | 16 | 126 | 4.8 | 4.8 | 0.00 | 0.00 | 0.00 | 77 | 1006.0 |
| 20260505063652 | 16 | 140 | 4.8 | 4.8 | 0.00 | 0.00 | 0.00 | 72 | 1005.9 |
| 20260505063148 | 16 | 127 | 4.8 | 4.8 | 0.00 | 0.00 | 0.00 | 75 | 1006.0 |
| 20260505062644 | 16 | 140 | 4.8 | 4.8 | 0.00 | 0.00 | 0.00 | 76 | 1005.9 |
| 20260505062141 | 16 | 122 | 4.8 | 4.8 | 0.00 | 0.00 | 0.00 | 76 | 1006.2 |
| 20260505061638 | 15 | 109 | 6.4 | 8.0 | 0.00 | 0.00 | 0.00 | 80 | 1006.2 |
| 20260505061137 | 14 | 113 | 6.4 | 8.0 | 0.00 | 0.00 | 0.00 | 82 | 1006.1 |
| 20260505060634 | 13 | 133 | 3.2 | 3.2 | 0.00 | 0.00 | 0.00 | 85 | 1006.2 |
| 20260505060130 | 13 | 133 | 3.2 | 3.2 | 0.00 | 0.00 | 0.00 | 88 | 1006.2 |
| 20260505055626 | 12 | 129 | 4.8 | 4.8 | 0.00 | 0.00 | 0.00 | 90 | 1006.0 |
| 20260505055122 | 12 | 169 | 3.2 | 3.2 | 0.00 | 0.00 | 0.00 | 92 | 1006.3 |
| 20260505054620 | 12 | 134 | 4.8 | 4.8 | 0.00 | 0.00 | 0.00 | 90 | 1006.4 |
| 20260505054118 | 12 | 131 | 3.2 | 3.2 | 0.00 | 0.00 | 0.00 | 93 | 1006.3 |
| 20260505053615 | 12 | 133 | 1.6 | 3.2 | 0.00 | 0.00 | 0.00 | 93 | 1006.2 |
| 20260505053111 | 12 | 134 | 3.2 | 3.2 | 0.00 | 0.00 | 0.00 | 93 | 1006.2 |
| 20260505052608 | 12 | 131 | 4.8 | 4.8 | 0.00 | 0.00 | 0.00 | 94 | 1006.2 |
| 20260505052106 | 12 | 125 | 3.2 | 3.2 | 0.00 | 0.00 | 0.00 | 94 | 1006.1 |
| 20260505051602 | 12 | 126 | 3.2 | 3.2 | 0.00 | 0.00 | 0.00 | 94 | 1006.3 |
| 20260505051101 | 12 | 128 | 3.2 | 3.2 | 0.00 | 0.00 | 0.00 | 95 | 1005.8 |
| 20260505050558 | 12 | 151 | 3.2 | 3.2 | 0.00 | 0.00 | 0.00 | 95 | 1006.1 |
| 20260505041526 | 12 | 143 | 3.2 | 3.2 | 0.00 | 0.00 | 0.00 | 94 | 1005.5 |
| 20260505041024 | 12 | 138 | 4.8 | 4.8 | 0.00 | 0.00 | 0.00 | 94 | 1005.3 |
| 20260505040521 | 12 | 132 | 3.2 | 3.2 | 0.00 | 0.00 | 0.00 | 94 | 1005.3 |
| 20260505040018 | 12 | 136 | 3.2 | 3.2 | 0.00 | 0.00 | 0.00 | 94 | 1005.4 |
| 20260505035514 | 12 | 136 | 3.2 | 3.2 | 0.00 | 0.00 | 0.00 | 94 | 1005.1 |
| 20260505035011 | 12 | 134 | 4.8 | 4.8 | 0.00 | 0.00 | 0.00 | 94 | 1005.3 |
| 20260505034507 | 12 | 134 | 1.6 | 1.6 | 0.00 | 0.00 | 0.00 | 94 | 1005.2 |
| 20260505034004 | 12 | 137 | 3.2 | 3.2 | 0.00 | 0.00 | 0.00 | 94 | 1005.5 |
| 20260505033501 | 12 | 136 | 1.6 | 3.2 | 0.00 | 0.00 | 0.00 | 93 | 1005.2 |
| 20260505032959 | 12 | 132 | 3.2 | 3.2 | 0.00 | 0.00 | 0.00 | 93 | 1005.2 |
| 20260505032456 | 13 | 134 | 1.6 | 1.6 | 0.00 | 0.00 | 0.00 | 93 | 1005.3 |
| 20260505031952 | 13 | 135 | 1.6 | 1.6 | 0.00 | 0.00 | 0.00 | 93 | 1005.3 |
| 20260505031450 | 13 | 133 | 1.6 | 1.6 | 0.00 | 0.00 | 0.00 | 93 | 1005.1 |
| 20260505030946 | 13 | 133 | 1.6 | 1.6 | 0.00 | 0.00 | 0.00 | 93 | 1005.2 |
| 20260505030442 | 13 | 127 | 1.6 | 1.6 | 0.00 | 0.00 | 0.00 | 93 | 1005.2 |
| 20260505025938 | 13 | 133 | 1.6 | 3.2 | 0.00 | 0.00 | 0.00 | 92 | 1005.4 |
| 20260505025435 | 13 | 135 | 1.6 | 3.2 | 0.00 | 0.00 | 0.00 | 92 | 1005.1 |
| 20260505024934 | 13 | 129 | 0.0 | 0.0 | 0.00 | 0.00 | 0.00 | 92 | 1005.2 |
| 20260505024431 | 13 | 129 | 0.0 | 0.0 | 0.00 | 0.00 | 0.00 | 92 | 1005.3 |
| 20260505023928 | 13 | 132 | 0.0 | 0.0 | 0.00 | 0.00 | 0.00 | 91 | 1005.1 |
| 20260505023425 | 13 | 128 | 0.0 | 0.0 | 0.00 | 0.00 | 0.00 | 91 | 1005.1 |
| 20260505022922 | 13 | 132 | 0.0 | 0.0 | 0.00 | 0.00 | 0.00 | 91 | 1005.1 |
| 20260505022420 | 13 | 127 | 0.0 | 0.0 | 0.00 | 0.00 | 0.00 | 91 | 1005.1 |
| 20260505021917 | 13 | 128 | 0.0 | 0.0 | 0.00 | 0.00 | 0.00 | 91 | 1004.9 |
| 20260505021413 | 14 | 130 | 0.0 | 0.0 | 0.00 | 0.00 | 0.00 | 90 | 1005.0 |
| 20260505020909 | 14 | 131 | 0.0 | 0.0 | 0.00 | 0.00 | 0.00 | 89 | 1004.9 |
| 20260505020404 | 14 | 131 | 0.0 | 0.0 | 0.00 | 0.00 | 0.00 | 89 | 1005.1 |
| 20260505015902 | 15 | 130 | 0.0 | 0.0 | 0.00 | 0.00 | 0.00 | 88 | 1005.1 |
| 20260505015359 | 15 | 127 | 0.0 | 0.0 | 0.00 | 0.00 | 0.00 | 88 | 1004.9 |
| 20260505014856 | 15 | 127 | 0.0 | 0.0 | 0.00 | 0.00 | 0.00 | 87 | 1005.0 |
| 20260505014353 | 15 | 129 | 0.0 | 0.0 | 0.00 | 0.00 | 0.00 | 87 | 1004.8 |
| 20260505013850 | 15 | 131 | 0.0 | 0.0 | 0.00 | 0.00 | 0.00 | 86 | 1004.7 |
| 20260505013347 | 15 | 134 | 0.0 | 0.0 | 0.00 | 0.00 | 0.00 | 86 | 1004.6 |
| 20260505012845 | 15 | 128 | 0.0 | 0.0 | 0.00 | 0.00 | 0.00 | 86 | 1004.8 |
| 20260505012343 | 15 | 132 | 0.0 | 0.0 | 0.00 | 0.00 | 0.00 | 85 | 1005.0 |
| 20260505011838 | 16 | 134 | 0.0 | 0.0 | 0.00 | 0.00 | 0.00 | 84 | 1004.8 |
| 20260505011336 | 16 | 124 | 0.0 | 0.0 | 0.00 | 0.00 | 0.00 | 82 | 1004.9 |
| 20260505010831 | 16 | 128 | 0.0 | 0.0 | 0.00 | 0.00 | 0.00 | 82 | 1004.8 |
| 20260505010327 | 16 | 128 | 0.0 | 0.0 | 0.00 | 0.00 | 0.00 | 81 | 1004.8 |
| 20260505005824 | 17 | 127 | 0.0 | 0.0 | 0.00 | 0.00 | 0.00 | 79 | 1004.8 |
| 20260505005321 | 17 | 127 | 0.0 | 0.0 | 0.00 | 0.00 | 0.00 | 77 | 1004.7 |
| 20260505004818 | 17 | 127 | 0.0 | 0.0 | 0.00 | 0.00 | 0.00 | 75 | 1004.8 |
| 20260505004314 | 17 | 127 | 0.0 | 0.0 | 0.00 | 0.00 | 0.00 | 75 | 1004.9 |
| 20260505003812 | 18 | 127 | 0.0 | 0.0 | 0.00 | 0.00 | 0.00 | 74 | 1004.7 |
| 20260505003309 | 18 | 127 | 0.0 | 0.0 | 0.00 | 0.00 | 0.00 | 73 | 1004.7 |
| 20260505002805 | 18 | 127 | 0.0 | 0.0 | 0.00 | 0.00 | 0.00 | 72 | 1004.6 |
| 20260505002304 | 19 | 127 | 0.0 | 0.0 | 0.00 | 0.00 | 0.00 | 71 | 1004.7 |
| 20260505001801 | 19 | 124 | 0.0 | 0.0 | 0.00 | 0.00 | 0.00 | 70 | 1004.7 |
| 20260505001257 | 20 | 129 | 0.0 | 0.0 | 0.00 | 0.00 | 0.00 | 68 | 1004.7 |
| 20260505000754 | 20 | 131 | 0.0 | 0.0 | 0.00 | 0.00 | 0.00 | 67 | 1004.7 |
| 20260505000252 | 20 | 130 | 0.0 | 0.0 | 0.00 | 0.00 | 0.00 | 64 | 1004.5 |
| 20260504235749 | 21 | 132 | 0.0 | 0.0 | 0.00 | 0.00 | 0.00 | 60 | 1004.6 |
| 20260504235245 | 22 | 137 | 3.2 | 3.2 | 0.00 | 0.00 | 0.00 | 56 | 1004.8 |
| 20260504234742 | 22 | 126 | 3.2 | 3.2 | 0.00 | 0.00 | 0.00 | 51 | 1004.8 |
| 20260504234239 | 23 | 129 | 1.6 | 1.6 | 0.00 | 0.00 | 0.00 | 51 | 1005.0 |
| 20260504233736 | 23 | 75 | 6.4 | 8.0 | 0.00 | 0.00 | 0.00 | 50 | 1004.6 |
| 20260504233231 | 23 | 106 | 4.8 | 4.8 | 0.00 | 0.00 | 0.00 | 48 | 1004.9 |
| 20260504232729 | 23 | 101 | 8.0 | 9.7 | 0.00 | 0.00 | 0.00 | 49 | 1004.6 |
| 20260504232226 | 23 | 140 | 6.4 | 9.7 | 0.00 | 0.00 | 0.00 | 49 | 1004.8 |
| 20260504231722 | 23 | 127 | 3.2 | 3.2 | 0.00 | 0.00 | 0.00 | 53 | 1004.7 |
| 20260504231219 | 24 | 130 | 4.8 | 4.8 | 0.00 | 0.00 | 0.00 | 49 | 1004.6 |
| 20260504230715 | 23 | 93 | 8.0 | 9.7 | 0.00 | 0.00 | 0.00 | 49 | 1004.6 |
| 20260504230214 | 24 | 163 | 11.3 | 16.1 | 0.00 | 0.00 | 0.00 | 51 | 1004.9 |
| 20260504225712 | 24 | 130 | 0.0 | 1.6 | 0.00 | 0.00 | 0.00 | 51 | 1004.7 |
| 20260504225208 | 24 | 124 | 4.8 | 8.0 | 0.00 | 0.00 | 0.00 | 52 | 1004.6 |
| 20260504224705 | 24 | 74 | 4.8 | 4.8 | 0.00 | 0.00 | 0.00 | 52 | 1004.7 |